Location: Monteux
(44.0348°N, 4.9972°E)
Time: 18:14:15
(UTC+00:00)

Cosmos 1606 - Pass Details

Date: 30 November 2020
Orbit: 502 x 528 km, 82.5° (Epoch: 17 January)

Event Time Altitude Azimuth Distance (km) Brightness Sun altitude
Rises 17:02:57 0° 200° (SSW) 2,652 7.0 -10.5°
Reaches altitude 10° 17:05:08 10° 207° (SSW) 1,768 6.1 -10.9°
Maximum altitude 17:08:53 47° 281° (WNW) 707 3.8 -11.5°
Drops below altitude 10° 17:12:40 10° 357° (N) 1,776 5.3 -12.2°
Sets 17:14:53 0° 3° (N) 2,667 6.1 -12.5°
